TimeEST,TemperatureF,Dew PointF,Humidity,Sea Level PressureIn,VisibilityMPH,Wind Direction,Wind SpeedMPH,Gust SpeedMPH,PrecipitationIn,Events,Conditions,WindDirDegrees,DateUTC
12:09 AM,55.4,55.4,100,29.75,6.0,SE,17.3,-,N/A,,Mostly Cloudy,130,2011-11-30 05:09:00
12:53 AM,55.4,55.4,100,29.74,6.0,SE,16.1,-,N/A,,Overcast,140,2011-11-30 05:53:00
1:07 AM,55.4,55.4,100,29.73,6.0,SE,17.3,-,N/A,,Overcast,140,2011-11-30 06:07:00
1:43 AM,57.2,55.4,94,29.72,7.0,SE,19.6,-,N/A,,Overcast,140,2011-11-30 06:43:00
1:53 AM,57.0,55.9,96,29.72,7.0,SE,17.3,-,N/A,,Overcast,140,2011-11-30 06:53:00
2:35 AM,57.2,55.4,94,29.70,6.0,SSE,17.3,-,0.00,,Overcast,150,2011-11-30 07:35:00
2:53 AM,57.9,57.0,97,29.69,6.0,SSE,18.4,-,0.00,,Overcast,150,2011-11-30 07:53:00
3:46 AM,55.4,55.4,100,29.71,4.0,West,24.2,31.1,0.00,Rain,Light Rain,260,2011-11-30 08:46:00
3:51 AM,53.6,53.6,100,29.69,2.0,West,13.8,31.1,0.06,Rain,Heavy Rain,280,2011-11-30 08:51:00
3:53 AM,54.0,53.1,97,29.68,2.0,West,10.4,31.1,0.07,Rain,Heavy Rain,280,2011-11-30 08:53:00
3:57 AM,53.6,53.6,100,29.69,3.0,West,10.4,-,0.00,Rain,Light Rain,260,2011-11-30 08:57:00
4:02 AM,53.6,53.6,100,29.71,7.0,WSW,12.7,18.4,0.01,Rain,Light Rain,250,2011-11-30 09:02:00
4:12 AM,53.6,53.6,100,29.70,3.0,West,13.8,-,0.05,Rain,Heavy Rain,270,2011-11-30 09:12:00
4:29 AM,53.6,53.6,100,29.69,4.0,West,13.8,-,0.09,Rain,Heavy Rain,270,2011-11-30 09:29:00
4:39 AM,53.6,53.6,100,29.70,2.0,West,10.4,-,0.16,Rain,Heavy Rain,260,2011-11-30 09:39:00
4:53 AM,53.1,53.1,100,29.69,4.0,West,9.2,-,0.21,Rain,Rain,260,2011-11-30 09:53:00
5:32 AM,53.6,53.6,100,29.71,2.5,West,12.7,-,0.12,Rain,Heavy Rain,260,2011-11-30 10:32:00
5:41 AM,53.6,53.6,100,29.71,4.0,WSW,11.5,-,0.13,Rain,Heavy Rain,250,2011-11-30 10:41:00
5:53 AM,53.1,53.1,100,29.73,5.0,WSW,15.0,-,0.16,Rain,Light Rain,250,2011-11-30 10:53:00
6:19 AM,53.6,53.6,100,29.71,4.0,WSW,9.2,-,0.00,Rain,Light Rain,240,2011-11-30 11:19:00
6:53 AM,52.0,50.0,93,29.73,5.0,WSW,12.7,-,0.00,Rain,Light Rain,240,2011-11-30 11:53:00
7:08 AM,51.8,51.8,100,29.72,7.0,SSW,9.2,-,0.00,Rain,Light Rain,210,2011-11-30 12:08:00
7:53 AM,51.8,51.8,100,29.72,6.0,South,10.4,-,N/A,,Overcast,180,2011-11-30 12:53:00
8:53 AM,53.1,52.0,96,29.72,5.0,SSW,11.5,-,0.00,,Overcast,210,2011-11-30 13:53:00
9:03 AM,53.6,51.8,94,29.72,3.0,SW,13.8,-,0.00,Rain,Light Rain,220,2011-11-30 14:03:00
9:32 AM,53.6,51.8,94,29.72,7.0,SW,10.4,-,0.00,,Overcast,220,2011-11-30 14:32:00
10:45 AM,53.6,48.2,82,29.71,9.0,SSW,12.7,-,N/A,,Overcast,210,2011-11-30 15:45:00
10:53 AM,53.1,48.0,83,29.70,9.0,SW,12.7,-,N/A,,Overcast,220,2011-11-30 15:53:00
11:53 AM,55.0,50.0,83,29.68,10.0,SW,17.3,-,N/A,,Mostly Cloudy,220,2011-11-30 16:53:00
12:53 PM,55.9,46.0,69,29.68,9.0,WSW,19.6,27.6,N/A,,Mostly Cloudy,250,2011-11-30 17:53:00
1:53 PM,55.0,45.0,69,29.68,10.0,SW,19.6,26.5,N/A,,Partly Cloudy,230,2011-11-30 18:53:00
2:53 PM,52.0,44.1,74,29.70,10.0,WSW,17.3,25.3,N/A,,Scattered Clouds,240,2011-11-30 19:53:00
3:53 PM,50.0,41.0,71,29.72,10.0,WSW,17.3,26.5,N/A,,Scattered Clouds,250,2011-11-30 20:53:00
4:15 PM,50.0,42.8,76,29.72,10.0,WSW,18.4,24.2,N/A,,Mostly Cloudy,250,2011-11-30 21:15:00
4:53 PM,50.0,41.0,71,29.74,10.0,WSW,16.1,-,N/A,,Scattered Clouds,250,2011-11-30 21:53:00
5:53 PM,50.0,39.0,66,29.76,10.0,WSW,18.4,26.5,N/A,,Clear,250,2011-11-30 22:53:00
6:53 PM,50.0,39.9,68,29.78,10.0,WSW,17.3,-,N/A,,Overcast,240,2011-11-30 23:53:00
7:53 PM,51.1,37.9,61,29.79,10.0,WSW,16.1,-,N/A,,Overcast,250,2011-12-01 00:53:00
8:53 PM,51.1,37.0,59,29.80,10.0,WSW,15.0,-,N/A,,Overcast,250,2011-12-01 01:53:00
9:53 PM,50.0,37.9,63,29.82,10.0,West,10.4,19.6,N/A,,Overcast,270,2011-12-01 02:53:00
10:53 PM,50.0,36.0,59,29.83,10.0,West,13.8,21.9,N/A,,Overcast,270,2011-12-01 03:53:00
11:53 PM,48.2,33.8,58,29.85,10.0,West,10.4,-,N/A,,Overcast,280,2011-12-01 04:53:00